Weather History for Spencer, IA

Change the Weather History Date:

Saturday, January 12, 2013

  Actual Average Record
Temperature  
Mean Temperature 16 °F -  
Max Temperature 26 °F 26 °F 52 °F (2006)
Min Temperature 7 °F 5 °F -26 °F (1974)
Degree Days  
Heating Degree Days 48    
Moisture  
Dew Point 6 °F    
Average Humidity 70    
Maximum Humidity 80    
Minimum Humidity 61    
Precipitation  
Precipitation 0.00 in - - ()
Sea Level Pressure  
Sea Level Pressure 29.95 in    
Wind  
Wind Speed 24 mph (WNW)    
Max Wind Speed 36 mph    
Max Gust Speed 43 mph    
Visibility 10 miles    
Events Snow    
Averages and records for this station are not official NWS values.
T = Trace of Precipitation, MM = Missing Value Source: NWS Daily Summary

Daily Weather History Graph

Daily Weather History Graph

Search for Another Location

Airport:

Trip Planner

Search our weather history database for the weather conditions in past years. The results will help you decide how hot, cold, wet, or windy it might be!

Date:

Astronomy

Jan. 12, 2013 Rise Set
Actual Time 7:50 AM CST 5:07 PM CST
Civil Twilight 7:19 AM CST 5:39 PM CST
Nautical Twilight 6:43 AM CST 6:15 PM CST
Astronomical Twilight 6:09 AM CST 6:49 PM CST
Moon 8:07 AM CST (1/12) 6:41 PM CST (1/12)
Length of Visible Light 10h 20m
Length of Day
9h 17m
New Moon, 1% of the Moon is Illuminated
Jan 12
New Moon
Jan 18
First Quarter
Jan 26
Full
Feb 3
Last Quarter
Feb 10
New

Hourly Weather History & Observations

Time (CST) Temp. Windchill Dew Point Humidity Pressure Visibility Wind Dir Wind Speed Gust Speed Precip Events Conditions
12:04 AM 26.6 °F 11.7 °F 21.2 °F 80% 29.53 in 10.0 mi West 24.2 mph 33.4 mph N/A   Overcast
12:50 AM 24.8 °F 6.6 °F 17.6 °F 74% 29.58 in 10.0 mi West 35.7 mph 41.4 mph N/A   Overcast
12:53 AM 24.1 °F 6.6 °F 18.0 °F 77% 29.63 in 10.0 mi West 31.1 mph 41.4 mph N/A   Overcast
1:53 AM 21.9 °F 3.1 °F 15.1 °F 75% 29.69 in 7.0 mi West 33.4 mph 39.1 mph 0.00 in Snow Light Snow
2:53 AM 18.0 °F -2.3 °F 12.0 °F 78% 29.75 in 6.0 mi West 33.4 mph 41.4 mph 0.00 in Snow Light Snow
3:53 AM 16.0 °F -4.1 °F 8.1 °F 71% 29.81 in 9.0 mi West 29.9 mph 42.6 mph 0.00 in   Mostly Cloudy
5:16 AM 14.0 °F -5.8 °F 5.0 °F 67% 29.80 in 10.0 mi WNW 26.5 mph 34.5 mph N/A   Partly Cloudy
5:43 AM 14.0 °F -5.5 °F 6.8 °F 73% 29.81 in 10.0 mi West 25.3 mph 33.4 mph N/A   Mostly Cloudy
5:53 AM 15.1 °F -4.7 °F 7.0 °F 70% 29.87 in 10.0 mi West 27.6 mph 32.2 mph N/A   Overcast
6:53 AM 14.0 °F -5.5 °F 6.1 °F 71% 29.92 in 10.0 mi West 25.3 mph 31.1 mph 0.00 in   Overcast
7:53 AM 12.9 °F -2.8 °F 5.0 °F 71% 29.95 in 10.0 mi West 15.0 mph 27.6 mph 0.00 in   Mostly Cloudy
8:53 AM 14.0 °F -4.3 °F 5.0 °F 67% 29.99 in 10.0 mi West 21.9 mph 27.6 mph N/A   Mostly Cloudy
9:01 AM 14.0 °F -3.0 °F 5.0 °F 67% 29.92 in 10.0 mi WNW 18.4 mph 28.8 mph N/A   Scattered Clouds
9:20 AM 14.0 °F -3.9 °F 5.0 °F 67% 29.93 in 10.0 mi West 20.7 mph 28.8 mph N/A   Mostly Cloudy
9:53 AM 15.1 °F -3.3 °F 5.0 °F 64% 30.01 in 10.0 mi West 23.0 mph 28.8 mph N/A   Overcast
10:19 AM 14.0 °F -6.2 °F 3.2 °F 62% 29.97 in 10.0 mi West 27.6 mph 33.4 mph N/A   Scattered Clouds
11:53 AM 15.1 °F -3.3 °F 5.0 °F 64% 30.06 in 10.0 mi West 23.0 mph - N/A   Overcast
12:53 PM 15.1 °F -1.6 °F 6.1 °F 68% 30.06 in 7.0 mi West 18.4 mph - N/A   Overcast
1:53 PM 15.1 °F -3.3 °F 3.9 °F 61% 30.05 in 10.0 mi West 23.0 mph 26.5 mph 0.00 in   Overcast
2:53 PM 14.0 °F -2.5 °F 6.1 °F 71% 30.06 in 8.0 mi NW 17.3 mph - 0.00 in   Overcast
3:53 PM 15.1 °F -2.5 °F 5.0 °F 64% 30.08 in 6.0 mi WNW 20.7 mph 26.5 mph 0.00 in Snow Light Snow
4:53 PM 12.0 °F -5.6 °F 3.9 °F 70% 30.11 in 10.0 mi NW 18.4 mph - 0.00 in   Mostly Cloudy
5:10 PM 10.4 °F -7.2 °F 3.2 °F 73% 30.03 in 10.0 mi WNW 17.3 mph - N/A   Scattered Clouds
5:53 PM 10.9 °F -4.7 °F 3.0 °F 70% 30.11 in 10.0 mi NW 13.8 mph - N/A   Scattered Clouds
6:41 PM 10.4 °F -6.6 °F 1.4 °F 67% 30.04 in 10.0 mi NW 16.1 mph - N/A   Mostly Cloudy
6:53 PM 10.9 °F -4.7 °F 3.0 °F 70% 30.13 in 10.0 mi NW 13.8 mph 20.7 mph N/A   Overcast
7:38 PM 8.6 °F -7.0 °F 1.4 °F 73% 30.08 in 10.0 mi WNW 12.7 mph - N/A   Scattered Clouds
7:53 PM 9.0 °F -7.3 °F -0.0 °F 67% 30.17 in 10.0 mi WNW 13.8 mph 20.7 mph N/A   Clear
8:53 PM 8.1 °F -6.2 °F -0.0 °F 70% 30.15 in 10.0 mi NW 10.4 mph - N/A   Clear
9:53 PM 7.0 °F -8.3 °F -0.0 °F 73% 30.16 in 10.0 mi NW 11.5 mph - N/A   Clear
10:53 PM 7.0 °F -9.1 °F -0.0 °F 73% 30.15 in 10.0 mi NW 12.7 mph - N/A   Clear